Terminal Aerodrome Forecast
Issued by NWS Oklahoma City, OK

Home | Current Version | Previous Version | Text Only | Print | Product List | Glossary On
Versions: 1 2 3 4 5 6 7 8 9 10 11 12 13 14 15 16 17 18 19 20 21 22 23
000
FTUS44 KOUN 271720
TAFOUN
TAF
KOUN 271720Z 2718/2818 35012KT P6SM SCT040 BKN090
      TEMPO 2718/2719 3SM -SN BKN013
     FM272300 34006KT P6SM FEW100 BKN250=

USA.gov is the U.S. government's official web portal to all federal, state and local government web resources and services.